TimeEDT,TemperatureF,Dew PointF,Humidity,Sea Level PressureIn,VisibilityMPH,Wind Direction,Wind SpeedMPH,Gust SpeedMPH,PrecipitationIn,Events,Conditions,WindDirDegrees,DateUTC
12:56 AM,50.0,30.9,48,29.57,10.0,West,13.8,-,N/A,,Mostly Cloudy,260,2012-10-30 04:56:00
1:56 AM,48.9,32.0,52,29.55,10.0,West,12.7,-,N/A,,Overcast,270,2012-10-30 05:56:00
2:56 AM,50.0,30.9,48,29.54,10.0,West,15.0,-,N/A,,Overcast,270,2012-10-30 06:56:00
3:56 AM,50.0,28.9,44,29.52,10.0,West,13.8,-,N/A,,Overcast,270,2012-10-30 07:56:00
4:56 AM,48.9,28.0,44,29.52,10.0,West,20.7,24.2,N/A,,Overcast,270,2012-10-30 08:56:00
5:56 AM,48.9,28.0,44,29.53,10.0,West,20.7,26.5,N/A,,Overcast,270,2012-10-30 09:56:00
6:56 AM,48.9,28.0,44,29.53,10.0,West,12.7,-,N/A,,Overcast,260,2012-10-30 10:56:00
7:56 AM,48.2,28.4,46,29.54,10.0,West,10.4,-,N/A,,Overcast,260,2012-10-30 11:56:00
8:56 AM,50.0,28.9,44,29.55,10.0,West,13.8,-,N/A,,Overcast,260,2012-10-30 12:56:00
9:56 AM,52.0,30.9,45,29.55,10.0,West,13.8,-,N/A,,Overcast,270,2012-10-30 13:56:00
10:56 AM,54.0,30.9,41,29.56,10.0,West,16.1,-,N/A,,Overcast,280,2012-10-30 14:56:00
11:56 AM,55.0,30.0,38,29.56,10.0,West,19.6,25.3,N/A,,Overcast,260,2012-10-30 15:56:00
12:56 PM,57.2,28.4,33,29.56,10.0,West,18.4,24.2,N/A,,Overcast,270,2012-10-30 16:56:00
1:56 PM,57.9,28.0,32,29.55,10.0,West,19.6,25.3,N/A,,Overcast,270,2012-10-30 17:56:00
2:56 PM,60.1,28.0,30,29.55,10.0,West,17.3,-,N/A,,Mostly Cloudy,270,2012-10-30 18:56:00
3:56 PM,57.9,27.0,31,29.56,10.0,West,19.6,-,N/A,,Mostly Cloudy,280,2012-10-30 19:56:00
4:56 PM,55.9,28.0,34,29.59,10.0,West,20.7,28.8,N/A,,Mostly Cloudy,270,2012-10-30 20:56:00
5:56 PM,54.0,28.9,38,29.61,10.0,West,16.1,-,N/A,,Mostly Cloudy,270,2012-10-30 21:56:00
6:56 PM,54.0,30.0,40,29.64,10.0,West,12.7,-,N/A,,Mostly Cloudy,270,2012-10-30 22:56:00
7:56 PM,54.0,30.0,40,29.66,10.0,West,13.8,-,N/A,,Mostly Cloudy,280,2012-10-30 23:56:00
8:56 PM,54.0,30.9,41,29.68,10.0,West,12.7,-,N/A,,Mostly Cloudy,280,2012-10-31 00:56:00
9:56 PM,53.1,28.9,40,29.70,10.0,West,13.8,-,N/A,,Mostly Cloudy,280,2012-10-31 01:56:00
10:56 PM,53.1,28.0,38,29.71,10.0,West,10.4,20.7,N/A,,Mostly Cloudy,270,2012-10-31 02:56:00
11:56 PM,50.0,28.9,44,29.71,10.0,West,9.2,-,N/A,,Scattered Clouds,260,2012-10-31 03:56:00